CZ-4 DEB, 26151

Orbit data source: Space-Track

CZ-4 DEB, 26151 is space debris in LEO originally from a launch on Thu, 14 Oct 1999 UTC launched from the Taiyaun Space Center, China (TSC). Debris objects in space refer to the collection of defunct objects orbiting the Earth. Examples of debris include non-operational satellites, rocket bodies, and fragments generated from explosions, collisions, or faulty payload assembly.

Loading next visibility...
CZ-4 DEB details
Identifier
26151, 1999-057AM
Orbit
LEO
Last TLE update18 hours ago
Origin
Flag of CNCNSA (CN / PRC)
ManufacturerUnknown
MissionSpacecraft
Bus & MotorUnknown
MassUnknown
Launch date (UTC)
1999-10-14 (25 years ago)
Launch vehicleUnknown
Launch site
Taiyaun Space Center, China (TSC)
Object type
Payload
Rocket body
Debris
Shape & HBRUnknown
Radar Cross SectionMedium (>0.1 m² and <1 m²)

Expand to show TLE details & history

TLE from 18 hours ago
0 CZ-4 DEB
1 26151U 99057AM  24347.92128029  .00002334  00000-0  22361-2 0  9996
2 26151  99.3952 325.5202 0617720  40.2568 348.6655 13.18215043186180
Epoch: 2024-12-12T22:06Z
Definitive object data (Epoch: 2024-12-12T22:06:38.617Z)
Latitude27.0616°
Longitude-93.05812°
Altitude737.378 km
Speed7.712 km/s
True Right ascension21h 22m 47s
True Declination26° 55' 20"
Sunlit
Object was in daylight at TLE epoch
Visualization TLE readout
Latitude-4.18818°
Longitude-86.86807°
Altitude837.833 km
Speed7.607 km/s
Apparent Right ascension23h 42m 20s
Apparent Declination-25° 09' 17"
Sunlit
Object is in daylight
Visualization observer readout
Local Sidereal Time14:41:49
Azimuth82.365° E
Elevation-49.886°
Doppler factor1
Orbital elements
Apogee altitude1,656.287 km
Perigee altitude721.431 km
Semi-major axis7,566.996 km
Eccentricity0.061772
Inclination99.3952°
RAAN325.5202°
Arg. of periapsis40.2568°
True anomaly347.16094°
Mean anomaly348.6655°
Eccentric anomaly347.92512°
Mean motion3.2973 °/min
BSTAR0.0022361
Orbital period109.18 mins
Loading maneuver chart data...
Loading historical data...
Loading historical data...
Loading historical data...
Loading historical data...
Loading historical data...
Loading historical data...
Loading historical data...

CZ-4 DEB Visibility forecast

Observer location: undefined°, undefined

Span
Click to sort rows by Start time (UTC) header in descending order
Start Az.
Max El. time (UTC)
Max El. Az.
Max El.
End time (UTC)
End Az.
7 mins2024-12-13 21:47:57.418Z124.046° SE2024-12-13 21:51:57.418Z61.788° ENE25.809°2024-12-13 21:54:57.418Z13.943° NNE
6 mins2024-12-13 23:36:57.418Z220.435° SW2024-12-13 23:39:57.418Z270.233° WNW21.858°2024-12-13 23:42:57.418Z313.695° NW
13 mins2024-12-14 10:58:57.418Z30.537° NE2024-12-14 11:04:57.418Z110.761° ESE37.097°2024-12-14 11:11:57.418Z173.147° S
11 mins2024-12-14 12:47:57.418Z343.637° N2024-12-14 12:51:57.418Z294.489° NW28.981°2024-12-14 12:58:57.418Z233.761° WSW
|